Location: Ellen Observatory
(29.0040°N, 81.3000°W)
Time: 13:19:32
(UTC-05:00)

Tiangong 2 - Visible Passes

Search period start: 21 January 2019 00:00
Search period end: 31 January 2019 00:00
Orbit: 380 x 392 km, 42.8° (Epoch: 20 January)

Date Brightness Start Highest point End Pass type
(mag) Time Alt. Az. Time Alt. Az. Time Alt. Az.
25 Jan 3.8 05:57:46 10° N 05:58:04 10° NNE 05:58:23 10° NNE visible
26 Jan 3.0 06:33:43 10° NNW 06:36:17 22° NNE 06:38:52 10° E visible
27 Jan 3.6 05:37:08 14° NNE 05:37:08 14° NNE 05:38:53 10° NE visible
28 Jan 2.1 06:13:13 19° NNW 06:15:04 40° NNE 06:18:06 10° ESE visible
29 Jan 3.7 05:17:07 18° ENE 05:17:07 18° ENE 05:18:30 10° E visible
29 Jan 1.9 06:49:45 10° WNW 06:52:44 38° SW 06:55:43 10° SSE visible
30 Jan 0.9 05:53:20 66° NW 05:53:44 90° SSE 05:56:54 10° SE visible
